Location: Dunlap
(36.7383°N, 119.1209°W)
Time: 14:23:15
(UTC+00:00)

Daily predictions for brighter satellites

Satellite Brightness Start Highest point End
(mag) Time Altitude Azimuth Time Altitude Azimuth Time Altitude Azimuth
Cosmos 1263 4.3 12:06:26 10° N 12:09:32 74° E 12:12:29 10° S
SL-8 R/B 4.2 12:05:17 10° WSW 12:10:00 55° NNW 12:14:43 10° NE
Cosmos 1464 Rocket 4.2 12:05:02 10° S 12:11:23 89° E 12:17:48 10° N
Cosmos 1900 4.5 12:07:50 10° SSW 12:12:41 79° ESE 12:17:38 10° NNE
Cosmos 2034 Rocket 4.4 12:10:14 10° S 12:16:19 68° E 12:22:25 10° NNE
